Year,Month,Day,Hour,Minute,Value (Times are PST for windgust in km/hr)
2010,10,23,00,00,3.20
2010,10,23,00,01,4.80
2010,10,23,00,02,4.80
2010,10,23,00,03,8.10
2010,10,23,00,04,4.80
2010,10,23,00,05,6.40
2010,10,23,00,06,8.10
2010,10,23,00,07,6.40
2010,10,23,00,08,9.60
2010,10,23,00,09,6.40
2010,10,23,00,10,8.10
2010,10,23,00,11,1.60
2010,10,23,00,12,8.10
2010,10,23,00,13,8.10
2010,10,23,00,14,6.40
2010,10,23,00,15,4.80
2010,10,23,00,16,6.40
2010,10,23,00,17,6.40
2010,10,23,00,18,8.10
2010,10,23,00,19,6.40
2010,10,23,00,20,6.40
2010,10,23,00,21,8.10
2010,10,23,00,22,6.40
2010,10,23,00,23,8.10
2010,10,23,00,24,4.80
2010,10,23,00,25,4.80
2010,10,23,00,26,9.60
2010,10,23,00,27,6.40
2010,10,23,00,28,3.20
2010,10,23,00,29,4.80
2010,10,23,00,30,3.20
2010,10,23,00,31,4.80
2010,10,23,00,32,3.20
2010,10,23,00,33,4.80
2010,10,23,00,34,4.80
2010,10,23,00,35,6.40
2010,10,23,00,36,6.40
2010,10,23,00,37,6.40
2010,10,23,00,38,8.10
2010,10,23,00,39,6.40
2010,10,23,00,40,6.40
2010,10,23,00,41,11.30
2010,10,23,00,42,6.40
2010,10,23,00,43,9.60
2010,10,23,00,44,8.10
2010,10,23,00,45,8.10
2010,10,23,00,46,6.40
2010,10,23,00,47,9.60
2010,10,23,00,48,9.60
2010,10,23,00,49,6.40
2010,10,23,00,50,8.10
2010,10,23,00,51,6.40
2010,10,23,00,52,8.10
2010,10,23,00,53,4.80
2010,10,23,00,54,8.10
2010,10,23,00,55,6.40
2010,10,23,00,56,6.40
2010,10,23,00,57,1.60
2010,10,23,00,58,3.20
2010,10,23,00,59,3.20
2010,10,23,01,00,6.40
2010,10,23,01,01,6.40
2010,10,23,01,02,6.40
2010,10,23,01,03,4.80
2010,10,23,01,04,8.10
2010,10,23,01,05,6.40
2010,10,23,01,06,6.40
2010,10,23,01,07,4.80
2010,10,23,01,08,6.40
2010,10,23,01,09,4.80
2010,10,23,01,12,1.60
2010,10,23,01,13,4.80
2010,10,23,01,14,4.80
2010,10,23,01,15,4.80
2010,10,23,01,16,3.20
2010,10,23,01,17,3.20
2010,10,23,01,18,6.40
2010,10,23,01,19,4.80
2010,10,23,01,20,1.60
2010,10,23,01,21,3.20
2010,10,23,01,22,3.20
2010,10,23,01,23,1.60
2010,10,23,01,24,1.60
2010,10,23,01,25,3.20
2010,10,23,01,26,3.20
2010,10,23,01,27,3.20
2010,10,23,01,28,3.20
2010,10,23,01,29,3.20
2010,10,23,01,30,1.60
2010,10,23,01,32,3.20
2010,10,23,01,33,3.20
2010,10,23,01,34,1.60
2010,10,23,01,35,4.80
2010,10,23,01,36,3.20
2010,10,23,01,37,4.80
2010,10,23,01,38,3.20
2010,10,23,01,40,1.60
2010,10,23,01,41,1.60
2010,10,23,01,42,1.60
2010,10,23,01,43,3.20
2010,10,23,01,44,1.60
2010,10,23,01,45,4.80
2010,10,23,01,46,1.60
2010,10,23,01,47,3.20
2010,10,23,01,48,1.60
2010,10,23,01,49,1.60
2010,10,23,01,50,3.20
2010,10,23,01,51,1.60
2010,10,23,01,53,3.20
2010,10,23,01,54,3.20
2010,10,23,02,15,1.60
2010,10,23,02,16,3.20
2010,10,23,02,17,3.20
2010,10,23,02,18,4.80
2010,10,23,02,19,6.40
2010,10,23,02,20,4.80
2010,10,23,02,21,4.80
2010,10,23,02,22,6.40
2010,10,23,02,23,3.20
2010,10,23,02,24,4.80
2010,10,23,02,25,4.80
2010,10,23,02,26,6.40
2010,10,23,02,27,4.80
2010,10,23,02,28,3.20
2010,10,23,02,29,4.80
2010,10,23,02,30,4.80
2010,10,23,02,31,4.80
2010,10,23,02,32,6.40
2010,10,23,02,33,6.40
2010,10,23,02,34,6.40
2010,10,23,02,35,8.10
2010,10,23,02,36,6.40
2010,10,23,02,37,6.40
2010,10,23,02,38,6.40
2010,10,23,02,39,6.40
2010,10,23,02,40,4.80
2010,10,23,02,41,4.80
2010,10,23,02,42,3.20
2010,10,23,02,43,3.20
2010,10,23,02,44,3.20
2010,10,23,02,45,3.20
2010,10,23,02,46,3.20
2010,10,23,02,48,1.60
2010,10,23,02,49,1.60
2010,10,23,02,50,3.20
2010,10,23,02,51,4.80
2010,10,23,02,52,4.80
2010,10,23,02,53,4.80
2010,10,23,02,54,6.40
2010,10,23,02,55,6.40
2010,10,23,02,56,8.10
2010,10,23,02,57,8.10
2010,10,23,02,58,8.10
2010,10,23,02,59,9.60
2010,10,23,03,00,9.60
2010,10,23,03,01,8.10
2010,10,23,03,02,8.10
2010,10,23,03,03,6.40
2010,10,23,03,04,6.40
2010,10,23,03,05,8.10
2010,10,23,03,06,8.10
2010,10,23,03,07,8.10
2010,10,23,03,08,6.40
2010,10,23,03,09,3.20
2010,10,23,03,10,4.80
2010,10,23,03,11,3.20
2010,10,23,03,12,3.20
2010,10,23,03,14,4.80
2010,10,23,03,15,4.80
2010,10,23,03,16,3.20
2010,10,23,03,17,1.60
2010,10,23,03,18,3.20
2010,10,23,03,19,4.80
2010,10,23,03,20,4.80
2010,10,23,03,21,3.20
2010,10,23,03,22,3.20
2010,10,23,03,23,4.80
2010,10,23,03,24,4.80
2010,10,23,03,25,3.20
2010,10,23,03,26,8.10
2010,10,23,03,27,4.80
2010,10,23,03,28,8.10
2010,10,23,03,29,6.40
2010,10,23,03,30,6.40
2010,10,23,03,31,6.40
2010,10,23,03,32,6.40
2010,10,23,03,33,6.40
2010,10,23,03,34,11.30
2010,10,23,03,35,9.60
2010,10,23,03,36,4.80
2010,10,23,03,37,6.40
2010,10,23,03,38,6.40
2010,10,23,03,39,11.30
2010,10,23,03,40,11.30
2010,10,23,03,41,11.30
2010,10,23,03,42,9.60
2010,10,23,03,43,11.30
2010,10,23,03,44,9.60
2010,10,23,03,45,11.30
2010,10,23,03,46,14.50
2010,10,23,03,47,11.30
2010,10,23,03,48,9.60
2010,10,23,03,49,17.70
2010,10,23,03,50,9.60
2010,10,23,03,51,9.60
2010,10,23,03,52,14.50
2010,10,23,03,53,11.30
2010,10,23,03,54,14.50
2010,10,23,03,55,8.10
2010,10,23,03,56,11.30
2010,10,23,03,57,9.60
2010,10,23,03,58,9.60
2010,10,23,03,59,11.30
2010,10,23,04,00,9.60
2010,10,23,04,01,11.30
2010,10,23,04,02,11.30
2010,10,23,04,03,9.60
2010,10,23,04,04,11.30
2010,10,23,04,05,11.30
2010,10,23,04,06,14.50
2010,10,23,04,07,11.30
2010,10,23,04,08,4.80
2010,10,23,04,09,11.30
2010,10,23,04,10,9.60
2010,10,23,04,11,9.60
2010,10,23,04,12,8.10
2010,10,23,04,13,12.90
2010,10,23,04,14,11.30
2010,10,23,04,15,9.60
2010,10,23,04,16,11.30
2010,10,23,04,17,12.90
2010,10,23,04,18,14.50
2010,10,23,04,19,9.60
2010,10,23,04,20,9.60
2010,10,23,04,21,12.90
2010,10,23,04,22,9.60
2010,10,23,04,23,11.30
2010,10,23,04,24,11.30
2010,10,23,04,25,14.50
2010,10,23,04,26,12.90
2010,10,23,04,27,12.90
2010,10,23,04,28,16.10
2010,10,23,04,29,6.40
2010,10,23,04,30,6.40
2010,10,23,04,31,14.50
2010,10,23,04,32,16.10
2010,10,23,04,33,16.10
2010,10,23,04,34,14.50
2010,10,23,04,35,11.30
2010,10,23,04,36,12.90
2010,10,23,04,37,11.30
2010,10,23,04,38,8.10
2010,10,23,04,39,11.30
2010,10,23,04,40,17.70
2010,10,23,04,41,11.30
2010,10,23,04,42,11.30
2010,10,23,04,43,14.50
2010,10,23,04,44,12.90
2010,10,23,04,45,17.70
2010,10,23,04,46,11.30
2010,10,23,04,47,9.60
2010,10,23,04,48,12.90
2010,10,23,04,49,12.90
2010,10,23,04,50,16.10
2010,10,23,04,51,11.30
2010,10,23,04,52,11.30
2010,10,23,04,53,16.10
2010,10,23,04,54,9.60
2010,10,23,04,55,11.30
2010,10,23,04,56,8.10
2010,10,23,04,57,11.30
2010,10,23,04,58,11.30
2010,10,23,04,59,11.30
2010,10,23,05,00,6.40
2010,10,23,05,01,4.80
2010,10,23,05,02,8.10
2010,10,23,05,03,9.60
2010,10,23,05,04,8.10
2010,10,23,05,05,9.60
2010,10,23,05,06,6.40
2010,10,23,05,07,6.40
2010,10,23,05,08,9.60
2010,10,23,05,09,9.60
2010,10,23,05,10,9.60
2010,10,23,05,11,6.40
2010,10,23,05,12,8.10
2010,10,23,05,13,8.10
2010,10,23,05,14,6.40
2010,10,23,05,15,8.10
2010,10,23,05,16,9.60
2010,10,23,05,17,4.80
2010,10,23,05,18,6.40
2010,10,23,05,19,6.40
2010,10,23,05,20,4.80
2010,10,23,05,21,6.40
2010,10,23,05,22,4.80
2010,10,23,05,23,1.60
2010,10,23,05,24,3.20
2010,10,23,05,25,3.20
2010,10,23,05,26,4.80
2010,10,23,05,27,6.40
2010,10,23,05,28,6.40
2010,10,23,05,29,3.20
2010,10,23,05,30,4.80
2010,10,23,05,31,6.40
2010,10,23,05,32,3.20
2010,10,23,05,33,3.20
2010,10,23,05,34,4.80
2010,10,23,05,35,8.10
2010,10,23,05,36,9.60
2010,10,23,05,37,8.10
2010,10,23,05,38,16.10
2010,10,23,05,39,14.50
2010,10,23,05,40,9.60
2010,10,23,05,41,8.10
2010,10,23,05,42,8.10
2010,10,23,05,43,6.40
2010,10,23,05,44,8.10
2010,10,23,05,45,6.40
2010,10,23,05,46,4.80
2010,10,23,05,47,6.40
2010,10,23,05,48,6.40
2010,10,23,05,49,8.10
2010,10,23,05,50,6.40
2010,10,23,05,51,6.40
2010,10,23,05,52,4.80
2010,10,23,05,53,6.40
2010,10,23,05,54,6.40
2010,10,23,05,55,3.20
2010,10,23,05,56,3.20
2010,10,23,05,57,6.40
2010,10,23,05,58,3.20
2010,10,23,05,59,4.80
2010,10,23,06,00,3.20
2010,10,23,06,01,3.20
2010,10,23,06,02,3.20
2010,10,23,06,03,3.20
2010,10,23,06,04,4.80
2010,10,23,06,05,4.80
2010,10,23,06,06,4.80
2010,10,23,06,07,3.20
2010,10,23,06,08,3.20
2010,10,23,06,09,1.60
2010,10,23,06,10,3.20
2010,10,23,06,11,4.80
2010,10,23,06,12,6.40
2010,10,23,06,13,8.10
2010,10,23,06,14,8.10
2010,10,23,06,15,6.40
2010,10,23,06,16,8.10
2010,10,23,06,17,8.10
2010,10,23,06,18,9.60
2010,10,23,06,19,9.60
2010,10,23,06,20,8.10
2010,10,23,06,21,8.10
2010,10,23,06,22,6.40
2010,10,23,06,23,4.80
2010,10,23,06,24,3.20
2010,10,23,06,25,3.20
2010,10,23,06,26,3.20
2010,10,23,06,27,6.40
2010,10,23,06,28,9.60
2010,10,23,06,29,8.10
2010,10,23,06,30,6.40
2010,10,23,06,31,8.10
2010,10,23,06,32,9.60
2010,10,23,06,33,9.60
2010,10,23,06,34,9.60
2010,10,23,06,35,11.30
2010,10,23,06,36,11.30
2010,10,23,06,37,9.60
2010,10,23,06,38,4.80
2010,10,23,06,39,6.40
2010,10,23,06,40,8.10
2010,10,23,06,41,8.10
2010,10,23,06,42,4.80
2010,10,23,06,43,8.10
2010,10,23,06,44,6.40
2010,10,23,06,45,3.20
2010,10,23,06,46,4.80
2010,10,23,06,47,6.40
2010,10,23,06,48,4.80
2010,10,23,06,49,3.20
2010,10,23,06,50,6.40
2010,10,23,06,51,3.20
2010,10,23,06,52,9.60
2010,10,23,06,53,8.10
2010,10,23,06,54,9.60
2010,10,23,06,55,8.10
2010,10,23,06,56,3.20
2010,10,23,06,57,3.20
2010,10,23,06,58,4.80
2010,10,23,06,59,9.60
2010,10,23,07,00,6.40
2010,10,23,07,01,6.40
2010,10,23,07,02,3.20
2010,10,23,07,03,3.20
2010,10,23,07,04,4.80
2010,10,23,07,05,8.10
2010,10,23,07,06,6.40
2010,10,23,07,07,3.20
2010,10,23,07,08,6.40
2010,10,23,07,09,8.10
2010,10,23,07,10,6.40
2010,10,23,07,11,6.40
2010,10,23,07,12,9.60
2010,10,23,07,13,9.60
2010,10,23,07,14,8.10
2010,10,23,07,15,9.60
2010,10,23,07,16,8.10
2010,10,23,07,17,6.40
2010,10,23,07,18,9.60
2010,10,23,07,19,9.60
2010,10,23,07,20,8.10
2010,10,23,07,21,8.10
2010,10,23,07,22,4.80
2010,10,23,07,23,6.40
2010,10,23,07,24,8.10
2010,10,23,07,25,4.80
2010,10,23,07,26,3.20
2010,10,23,07,27,4.80
2010,10,23,07,28,4.80
2010,10,23,07,29,6.40
2010,10,23,07,30,8.10
2010,10,23,07,31,8.10
2010,10,23,07,32,6.40
2010,10,23,07,33,8.10
2010,10,23,07,34,8.10
2010,10,23,07,35,8.10
2010,10,23,07,36,4.80
2010,10,23,07,37,8.10
2010,10,23,07,38,6.40
2010,10,23,07,39,3.20
2010,10,23,07,40,3.20
2010,10,23,07,41,8.10
2010,10,23,07,42,8.10
2010,10,23,07,43,9.60
2010,10,23,07,44,9.60
2010,10,23,07,45,9.60
2010,10,23,07,46,9.60
2010,10,23,07,47,9.60
2010,10,23,07,48,8.10
2010,10,23,07,49,8.10
2010,10,23,07,50,9.60
2010,10,23,07,51,9.60
2010,10,23,07,52,14.50
2010,10,23,07,53,12.90
2010,10,23,07,54,14.50
2010,10,23,07,55,11.30
2010,10,23,07,56,8.10
2010,10,23,07,57,8.10
2010,10,23,07,58,4.80
2010,10,23,07,59,6.40
2010,10,23,08,00,6.40
2010,10,23,08,01,3.20
2010,10,23,08,02,8.10
2010,10,23,08,03,9.60
2010,10,23,08,04,11.30
2010,10,23,08,05,11.30
2010,10,23,08,06,9.60
2010,10,23,08,07,11.30
2010,10,23,08,08,8.10
2010,10,23,08,09,11.30
2010,10,23,08,10,11.30
2010,10,23,08,11,6.40
2010,10,23,08,12,6.40
2010,10,23,08,13,9.60
2010,10,23,08,14,8.10
2010,10,23,08,15,6.40
2010,10,23,08,16,9.60
2010,10,23,08,17,11.30
2010,10,23,08,18,11.30
2010,10,23,08,19,9.60
2010,10,23,08,20,6.40
2010,10,23,08,21,9.60
2010,10,23,08,22,6.40
2010,10,23,08,23,4.80
2010,10,23,08,24,8.10
2010,10,23,08,25,4.80
2010,10,23,08,26,8.10
2010,10,23,08,27,8.10
2010,10,23,08,28,8.10
2010,10,23,08,29,8.10
2010,10,23,08,30,6.40
2010,10,23,08,31,9.60
2010,10,23,08,32,4.80
2010,10,23,08,33,4.80
2010,10,23,08,34,3.20
2010,10,23,08,35,4.80
2010,10,23,08,36,9.60
2010,10,23,08,37,8.10
2010,10,23,08,38,3.20
2010,10,23,08,39,3.20
2010,10,23,08,40,8.10
2010,10,23,08,41,8.10
2010,10,23,08,42,8.10
2010,10,23,08,43,6.40
2010,10,23,08,44,6.40
2010,10,23,08,45,6.40
2010,10,23,08,46,4.80
2010,10,23,08,47,6.40
2010,10,23,08,48,6.40
2010,10,23,08,49,4.80
2010,10,23,08,50,4.80
2010,10,23,08,51,4.80
2010,10,23,08,52,9.60
2010,10,23,08,53,8.10
2010,10,23,08,54,4.80
2010,10,23,08,55,3.20
2010,10,23,08,56,8.10
2010,10,23,08,57,8.10
2010,10,23,08,58,9.60
2010,10,23,08,59,9.60
2010,10,23,09,00,9.60
2010,10,23,09,01,11.30
2010,10,23,09,02,9.60
2010,10,23,09,03,16.10
2010,10,23,09,04,8.10
2010,10,23,09,05,4.80
2010,10,23,09,06,9.60
2010,10,23,09,07,4.80
2010,10,23,09,08,6.40
2010,10,23,09,09,6.40
2010,10,23,09,10,6.40
2010,10,23,09,11,6.40
2010,10,23,09,12,4.80
2010,10,23,09,13,4.80
2010,10,23,09,14,6.40
2010,10,23,09,15,16.10
2010,10,23,09,16,11.30
2010,10,23,09,17,11.30
2010,10,23,09,18,9.60
2010,10,23,09,19,8.10
2010,10,23,09,20,6.40
2010,10,23,09,21,8.10
2010,10,23,09,22,14.50
2010,10,23,09,23,17.70
2010,10,23,09,24,8.10
2010,10,23,09,25,6.40
2010,10,23,09,26,11.30
2010,10,23,09,27,8.10
2010,10,23,09,28,6.40
2010,10,23,09,29,6.40
2010,10,23,09,30,11.30
2010,10,23,09,31,6.40
2010,10,23,09,32,8.10
2010,10,23,09,33,9.60
2010,10,23,09,34,8.10
2010,10,23,09,35,8.10
2010,10,23,09,36,4.80
2010,10,23,09,37,9.60
2010,10,23,09,38,11.30
2010,10,23,09,39,4.80
2010,10,23,09,40,11.30
2010,10,23,09,41,8.10
2010,10,23,09,42,6.40
2010,10,23,09,43,9.60
2010,10,23,09,44,6.40
2010,10,23,09,45,9.60
2010,10,23,09,46,8.10
2010,10,23,09,47,11.30
2010,10,23,09,48,11.30
2010,10,23,09,49,6.40
2010,10,23,09,50,8.10
2010,10,23,09,51,11.30
2010,10,23,09,52,22.50
2010,10,23,09,53,9.60
2010,10,23,09,54,16.10
2010,10,23,09,55,19.30
2010,10,23,09,56,8.10
2010,10,23,09,57,17.70
2010,10,23,09,58,16.10
2010,10,23,09,59,9.60
2010,10,23,10,00,11.30
2010,10,23,10,01,4.80
2010,10,23,10,02,6.40
2010,10,23,10,03,8.10
2010,10,23,10,04,6.40
2010,10,23,10,05,8.10
2010,10,23,10,06,11.30
2010,10,23,10,07,16.10
2010,10,23,10,08,6.40
2010,10,23,10,09,4.80
2010,10,23,10,10,14.50
2010,10,23,10,11,11.30
2010,10,23,10,12,17.70
2010,10,23,10,13,19.30
2010,10,23,10,14,11.30
2010,10,23,10,15,24.20
2010,10,23,10,16,25.70
2010,10,23,10,17,17.70
2010,10,23,10,18,14.50
2010,10,23,10,19,17.70
2010,10,23,10,20,14.50
2010,10,23,10,21,24.20
2010,10,23,10,22,22.50
2010,10,23,10,23,29.00
2010,10,23,10,24,16.10
2010,10,23,10,25,17.70
2010,10,23,10,26,19.30
2010,10,23,10,27,20.90
2010,10,23,10,28,17.70
2010,10,23,10,29,16.10
2010,10,23,10,30,16.10
2010,10,23,10,31,14.50
2010,10,23,10,32,19.30
2010,10,23,10,33,19.30
2010,10,23,10,34,17.70
2010,10,23,10,35,11.30
2010,10,23,10,36,19.30
2010,10,23,10,37,16.10
2010,10,23,10,38,25.70
2010,10,23,10,39,11.30
2010,10,23,10,40,8.10
2010,10,23,10,41,27.40
2010,10,23,10,42,19.30
2010,10,23,10,43,19.30
2010,10,23,10,44,20.90
2010,10,23,10,45,16.10
2010,10,23,10,46,19.30
2010,10,23,10,47,16.10
2010,10,23,10,48,29.00
2010,10,23,10,49,22.50
2010,10,23,10,50,17.70
2010,10,23,10,51,27.40
2010,10,23,10,52,24.20
2010,10,23,10,53,33.80
2010,10,23,10,54,25.70
2010,10,23,10,55,19.30
2010,10,23,10,56,27.40
2010,10,23,10,57,16.10
2010,10,23,10,58,22.50
2010,10,23,10,59,27.40
2010,10,23,11,00,22.50
2010,10,23,11,01,20.90
2010,10,23,11,02,19.30
2010,10,23,11,03,19.30
2010,10,23,11,04,24.20
2010,10,23,11,05,9.60
2010,10,23,11,06,20.90
2010,10,23,11,07,20.90
2010,10,23,11,08,27.40
2010,10,23,11,09,24.20
2010,10,23,11,10,24.20
2010,10,23,11,11,19.30
2010,10,23,11,12,22.50
2010,10,23,11,13,27.40
2010,10,23,11,14,20.90
2010,10,23,11,15,20.90
2010,10,23,11,16,11.30
2010,10,23,11,17,9.60
2010,10,23,11,18,24.20
2010,10,23,11,19,30.60
2010,10,23,11,20,14.50
2010,10,23,11,21,22.50
2010,10,23,11,22,22.50
2010,10,23,11,23,20.90
2010,10,23,11,24,22.50
2010,10,23,11,25,20.90
2010,10,23,11,26,22.50
2010,10,23,11,27,22.50
2010,10,23,11,28,19.30
2010,10,23,11,29,17.70
2010,10,23,11,30,24.20
2010,10,23,11,31,20.90
2010,10,23,11,32,22.50
2010,10,23,11,33,22.50
2010,10,23,11,34,27.40
2010,10,23,11,35,27.40
2010,10,23,11,36,24.20
2010,10,23,11,37,30.60
2010,10,23,11,38,30.60
2010,10,23,11,39,29.00
2010,10,23,11,40,22.50
2010,10,23,11,41,22.50
2010,10,23,11,42,24.20
2010,10,23,11,43,20.90
2010,10,23,11,44,29.00
2010,10,23,11,45,30.60
2010,10,23,11,46,30.60
2010,10,23,11,47,25.70
2010,10,23,11,48,22.50
2010,10,23,11,49,17.70
2010,10,23,11,50,19.30
2010,10,23,11,51,20.90
2010,10,23,11,52,29.00
2010,10,23,11,53,30.60
2010,10,23,11,54,24.20
2010,10,23,11,55,30.60
2010,10,23,11,56,30.60
2010,10,23,11,57,25.70
2010,10,23,11,58,20.90
2010,10,23,11,59,25.70
2010,10,23,12,00,29.00
2010,10,23,12,01,22.50
2010,10,23,12,02,19.30
2010,10,23,12,03,22.50
2010,10,23,12,04,22.50
2010,10,23,12,05,12.90
2010,10,23,12,06,24.20
2010,10,23,12,07,29.00
2010,10,23,12,08,17.70
2010,10,23,12,09,22.50
2010,10,23,12,10,22.50
2010,10,23,12,11,20.90
2010,10,23,12,12,32.20
2010,10,23,12,13,27.40
2010,10,23,12,14,25.70
2010,10,23,12,15,22.50
2010,10,23,12,16,27.40
2010,10,23,12,17,20.90
2010,10,23,12,18,17.70
2010,10,23,12,19,29.00
2010,10,23,12,20,29.00
2010,10,23,12,21,29.00
2010,10,23,12,22,22.50
2010,10,23,12,23,19.30
2010,10,23,12,24,24.20
2010,10,23,12,25,20.90
2010,10,23,12,26,19.30
2010,10,23,12,27,22.50
2010,10,23,12,28,25.70
2010,10,23,12,29,22.50
2010,10,23,12,30,29.00
2010,10,23,12,31,25.70
2010,10,23,12,32,20.90
2010,10,23,12,33,24.20
2010,10,23,12,34,17.70
2010,10,23,12,35,24.20
2010,10,23,12,36,27.40
2010,10,23,12,37,24.20
2010,10,23,12,38,17.70
2010,10,23,12,39,24.20
2010,10,23,12,40,27.40
2010,10,23,12,41,22.50
2010,10,23,12,42,24.20
2010,10,23,12,43,32.20
2010,10,23,12,44,27.40
2010,10,23,12,45,29.00
2010,10,23,12,46,19.30
2010,10,23,12,47,24.20
2010,10,23,12,48,22.50
2010,10,23,12,49,25.70
2010,10,23,12,50,22.50
2010,10,23,12,51,29.00
2010,10,23,12,52,17.70
2010,10,23,12,53,22.50
2010,10,23,12,54,22.50
2010,10,23,12,55,33.80
2010,10,23,12,56,30.60
2010,10,23,12,57,20.90
2010,10,23,12,58,33.80
2010,10,23,12,59,27.40
2010,10,23,13,00,27.40
2010,10,23,13,01,29.00
2010,10,23,13,02,20.90
2010,10,23,13,03,16.10
2010,10,23,13,04,27.40
2010,10,23,13,05,22.50
2010,10,23,13,06,22.50
2010,10,23,13,07,30.60
2010,10,23,13,08,35.40
2010,10,23,13,09,20.90
2010,10,23,13,10,20.90
2010,10,23,13,11,25.70
2010,10,23,13,12,25.70
2010,10,23,13,13,29.00
2010,10,23,13,14,30.60
2010,10,23,13,15,33.80
2010,10,23,13,16,16.10
2010,10,23,13,17,20.90
2010,10,23,13,18,25.70
2010,10,23,13,19,27.40
2010,10,23,13,20,22.50
2010,10,23,13,21,16.10
2010,10,23,13,22,24.20
2010,10,23,13,23,22.50
2010,10,23,13,24,17.70
2010,10,23,13,25,20.90
2010,10,23,13,26,11.30
2010,10,23,13,27,20.90
2010,10,23,13,28,16.10
2010,10,23,13,29,19.30
2010,10,23,13,30,19.30
2010,10,23,13,31,27.40
2010,10,23,13,32,24.20
2010,10,23,13,33,20.90
2010,10,23,13,34,14.50
2010,10,23,13,35,22.50
2010,10,23,13,36,17.70
2010,10,23,13,37,20.90
2010,10,23,13,38,17.70
2010,10,23,13,39,8.10
2010,10,23,13,40,16.10
2010,10,23,13,41,27.40
2010,10,23,13,42,20.90
2010,10,23,13,43,33.80
2010,10,23,13,44,19.30
2010,10,23,13,45,29.00
2010,10,23,13,46,27.40
2010,10,23,13,47,25.70
2010,10,23,13,48,11.30
2010,10,23,13,49,17.70
2010,10,23,13,50,14.50
2010,10,23,13,51,17.70
2010,10,23,13,52,22.50
2010,10,23,13,53,17.70
2010,10,23,13,54,20.90
2010,10,23,13,55,25.70
2010,10,23,13,56,29.00
2010,10,23,13,57,30.60
2010,10,23,13,58,22.50
2010,10,23,13,59,19.30
2010,10,23,14,00,19.30
2010,10,23,14,01,20.90
2010,10,23,14,02,27.40
2010,10,23,14,03,16.10
2010,10,23,14,04,22.50
2010,10,23,14,05,19.30
2010,10,23,14,06,17.70
2010,10,23,14,07,25.70
2010,10,23,14,08,19.30
2010,10,23,14,09,22.50
2010,10,23,14,10,24.20
2010,10,23,14,11,24.20
2010,10,23,14,12,14.50
2010,10,23,14,13,25.70
2010,10,23,14,14,29.00
2010,10,23,14,15,35.40
2010,10,23,14,16,38.60
2010,10,23,14,17,30.60
2010,10,23,14,18,24.20
2010,10,23,14,19,20.90
2010,10,23,14,20,25.70
2010,10,23,14,21,32.20
2010,10,23,14,22,20.90
2010,10,23,14,23,33.80
2010,10,23,14,24,37.00
2010,10,23,14,25,27.40
2010,10,23,14,26,27.40
2010,10,23,14,27,25.70
2010,10,23,14,28,29.00
2010,10,23,14,29,20.90
2010,10,23,14,30,27.40
2010,10,23,14,31,32.20
2010,10,23,14,32,29.00
2010,10,23,14,33,24.20
2010,10,23,14,34,27.40
2010,10,23,14,35,32.20
2010,10,23,14,36,24.20
2010,10,23,14,37,19.30
2010,10,23,14,38,20.90
2010,10,23,14,39,24.20
2010,10,23,14,40,30.60
2010,10,23,14,41,37.00
2010,10,23,14,42,30.60
2010,10,23,14,43,20.90
2010,10,23,14,44,17.70
2010,10,23,14,45,17.70
2010,10,23,14,46,32.20
2010,10,23,14,47,20.90
2010,10,23,14,48,22.50
2010,10,23,14,49,24.20
2010,10,23,14,50,27.40
2010,10,23,14,51,30.60
2010,10,23,14,52,20.90
2010,10,23,14,53,30.60
2010,10,23,14,54,30.60
2010,10,23,14,55,22.50
2010,10,23,14,56,27.40
2010,10,23,14,57,29.00
2010,10,23,14,58,22.50
2010,10,23,14,59,19.30
2010,10,23,15,00,17.70
2010,10,23,15,01,25.70
2010,10,23,15,02,27.40
2010,10,23,15,03,29.00
2010,10,23,15,04,24.20
2010,10,23,15,05,25.70
2010,10,23,15,06,19.30
2010,10,23,15,07,22.50
2010,10,23,15,08,24.20
2010,10,23,15,09,30.60
2010,10,23,15,10,22.50
2010,10,23,15,11,20.90
2010,10,23,15,12,24.20
2010,10,23,15,13,24.20
2010,10,23,15,14,20.90
2010,10,23,15,15,20.90
2010,10,23,15,16,11.30
2010,10,23,15,17,22.50
2010,10,23,15,18,22.50
2010,10,23,15,19,25.70
2010,10,23,15,20,27.40
2010,10,23,15,21,20.90
2010,10,23,15,22,25.70
2010,10,23,15,23,16.10
2010,10,23,15,24,17.70
2010,10,23,15,25,22.50
2010,10,23,15,26,17.70
2010,10,23,15,27,11.30
2010,10,23,15,28,12.90
2010,10,23,15,29,32.20
2010,10,23,15,30,27.40
2010,10,23,15,31,20.90
2010,10,23,15,32,20.90
2010,10,23,15,33,16.10
2010,10,23,15,34,12.90
2010,10,23,15,35,9.60
2010,10,23,15,36,29.00
2010,10,23,15,37,22.50
2010,10,23,15,38,16.10
2010,10,23,15,39,16.10
2010,10,23,15,40,22.50
2010,10,23,15,41,24.20
2010,10,23,15,42,37.00
2010,10,23,15,43,16.10
2010,10,23,15,44,29.00
2010,10,23,15,45,29.00
2010,10,23,15,46,32.20
2010,10,23,15,47,38.60
2010,10,23,15,48,27.40
2010,10,23,15,49,17.70
2010,10,23,15,50,24.20
2010,10,23,15,51,27.40
2010,10,23,15,52,30.60
2010,10,23,15,53,35.40
2010,10,23,15,54,27.40
2010,10,23,15,55,37.00
2010,10,23,15,56,33.80
2010,10,23,15,57,35.40
2010,10,23,15,58,25.70
2010,10,23,15,59,29.00
2010,10,23,16,00,24.20
2010,10,23,16,01,27.40
2010,10,23,16,02,30.60
2010,10,23,16,03,27.40
2010,10,23,16,04,32.20
2010,10,23,16,05,37.00
2010,10,23,16,06,32.20
2010,10,23,16,07,27.40
2010,10,23,16,08,29.00
2010,10,23,16,09,25.70
2010,10,23,16,10,27.40
2010,10,23,16,11,25.70
2010,10,23,16,12,37.00
2010,10,23,16,13,24.20
2010,10,23,16,14,24.20
2010,10,23,16,15,29.00
2010,10,23,16,16,29.00
2010,10,23,16,17,40.20
2010,10,23,16,18,29.00
2010,10,23,16,19,38.60
2010,10,23,16,20,29.00
2010,10,23,16,21,40.20
2010,10,23,16,22,29.00
2010,10,23,16,23,33.80
2010,10,23,16,24,27.40
2010,10,23,16,25,33.80
2010,10,23,16,26,33.80
2010,10,23,16,27,35.40
2010,10,23,16,28,37.00
2010,10,23,16,29,29.00
2010,10,23,16,30,27.40
2010,10,23,16,31,33.80
2010,10,23,16,32,33.80
2010,10,23,16,33,35.40
2010,10,23,16,34,37.00
2010,10,23,16,35,32.20
2010,10,23,16,36,35.40
2010,10,23,16,37,38.60
2010,10,23,16,38,24.20
2010,10,23,16,39,30.60
2010,10,23,16,40,33.80
2010,10,23,16,41,33.80
2010,10,23,16,42,37.00
2010,10,23,16,43,30.60
2010,10,23,16,44,33.80
2010,10,23,16,45,25.70
2010,10,23,16,46,33.80
2010,10,23,16,47,35.40
2010,10,23,16,48,32.20
2010,10,23,16,49,32.20
2010,10,23,16,50,33.80
2010,10,23,16,51,25.70
2010,10,23,16,52,25.70
2010,10,23,16,53,25.70
2010,10,23,16,54,22.50
2010,10,23,16,55,25.70
2010,10,23,16,56,32.20
2010,10,23,16,57,20.90
2010,10,23,16,58,38.60
2010,10,23,16,59,29.00
2010,10,23,17,00,22.50
2010,10,23,17,01,35.40
2010,10,23,17,02,30.60
2010,10,23,17,03,32.20
2010,10,23,17,04,35.40
2010,10,23,17,05,37.00
2010,10,23,17,06,17.70
2010,10,23,17,07,35.40
2010,10,23,17,08,24.20
2010,10,23,17,09,30.60
2010,10,23,17,10,22.50
2010,10,23,17,11,22.50
2010,10,23,17,12,29.00
2010,10,23,17,13,24.20
2010,10,23,17,14,29.00
2010,10,23,17,15,25.70
2010,10,23,17,16,24.20
2010,10,23,17,17,41.80
2010,10,23,17,18,35.40
2010,10,23,17,19,27.40
2010,10,23,17,20,35.40
2010,10,23,17,21,24.20
2010,10,23,17,22,24.20
2010,10,23,17,23,25.70
2010,10,23,17,24,35.40
2010,10,23,17,25,27.40
2010,10,23,17,26,24.20
2010,10,23,17,27,35.40
2010,10,23,17,28,29.00
2010,10,23,17,29,37.00
2010,10,23,17,30,30.60
2010,10,23,17,31,37.00
2010,10,23,17,32,38.60
2010,10,23,17,33,30.60
2010,10,23,17,34,38.60
2010,10,23,17,35,30.60
2010,10,23,17,36,33.80
2010,10,23,17,37,38.60
2010,10,23,17,38,46.70
2010,10,23,17,39,41.80
2010,10,23,17,40,38.60
2010,10,23,17,41,48.30
2010,10,23,17,42,48.30
2010,10,23,17,43,30.60
2010,10,23,17,44,32.20
2010,10,23,17,45,43.50
2010,10,23,17,46,43.50
2010,10,23,17,47,37.00
2010,10,23,17,48,56.30
2010,10,23,17,49,37.00
2010,10,23,17,50,32.20
2010,10,23,17,51,43.50
2010,10,23,17,52,53.10
2010,10,23,17,53,33.80
2010,10,23,17,54,37.00
2010,10,23,17,55,37.00
2010,10,23,17,56,33.80
2010,10,23,17,57,48.30
2010,10,23,17,58,49.90
2010,10,23,17,59,45.10
2010,10,23,18,00,41.80
2010,10,23,18,01,29.00
2010,10,23,18,02,57.90
2010,10,23,18,03,43.50
2010,10,23,18,04,37.00
2010,10,23,18,05,37.00
2010,10,23,18,06,53.10
2010,10,23,18,07,53.10